Location: Castelbiague
(43.0361°N, 0.9246°E)
Time: 15:21:23
(UTC+00:00)

Cosmos 1626 - Pass Details

Date: 24 October 2021
Orbit: 487 x 492 km, 82.5° (Epoch: 30 November)

Event Time Altitude Azimuth Distance (km) Brightness Sun altitude
Exits shadow 05:15:36 10° 227° (SW) 1,687 4.4 -12.6°
Reaches altitude 10° 05:15:37 10° 227° (SW) 1,685 4.4 -12.6°
Maximum altitude 05:18:43 25° 285° (WNW) 1,018 3.1 -12.0°
Drops below altitude 10° 05:21:52 10° 343° (NNW) 1,697 4.6 -11.4°
Sets 05:24:15 0° 357° (N) 2,585 5.7 -11.0°
